FW7926 Weather Reports


Display with metric or nautical units.
time (UTC)temp
F
wind
direction
speed
MPH
gust
MPH
rain 1hr
in
rain 24hr
in
rain mn
in
humidity
%
barometer
mb
20260504050355 60 132 3.0 8.0 0.02 0.02 0.01 78 1009.4
20260504045857 60 324 4.0 8.0 0.01 0.01 0.01 75 1010.2
20260504045406 60 213 2.0 8.0 0.00 0.00 0.00 73 1008.3
20260504044854 61 194 2.0 5.0 0.00 0.00 0.00 71 1008.9
20260504044353 61 164 1.0 4.0 0.00 0.00 0.00 69 1008.8
20260504043854 61 186 1.0 8.0 0.00 0.00 0.00 68 1008.9
20260504043618 61 174 1.0 8.0 0.00 0.00 0.00 68 1008.8
20260504042854 61 126 2.0 6.0 0.00 0.00 0.00 69 1008.9
20260504042353 61 174 1.0 6.0 0.00 0.00 0.00 68 1009.2
20260504042121 61 148 1.0 4.0 0.00 0.00 0.00 69 1009.4
20260504041353 61 167 1.0 4.0 0.00 0.00 0.00 69 1009.5
20260504041121 61 133 0.0 0.0 0.00 0.00 0.00 69 1009.6
20260504040406 62 182 0.0 1.0 0.00 0.00 0.00 70 1009.7
20260504035855 62 153 0.0 1.0 0.00 0.00 0.00 70 1009.5
20260504035353 62 173 0.0 1.0 0.00 0.00 0.00 69 1009.5
20260504035115 62 173 0.0 0.0 0.00 0.00 0.00 69 1009.6
20260504034354 63 173 0.0 0.0 0.00 0.00 0.00 68 1009.6
20260504033848 63 173 0.0 4.0 0.00 0.00 0.00 67 1009.6
20260504033343 64 188 0.0 4.0 0.00 0.00 0.00 66 1009.6
20260504032836 64 188 1.0 4.0 0.00 0.00 0.00 65 1009.6
20260504032331 64 193 1.0 4.0 0.00 0.00 0.00 64 1009.7
20260504031825 65 190 2.0 7.0 0.00 0.00 0.00 64 1009.8
20260504031318 65 201 3.0 7.0 0.00 0.00 0.00 63 1009.7
20260504030813 65 202 3.0 6.0 0.00 0.00 0.00 63 1009.9
20260504030307 65 157 3.0 8.0 0.00 0.00 0.00 63 1009.8
20260504030246 65 208 3.0 8.0 0.00 0.00 0.00 63 1009.8
20260504025255 65 194 3.0 9.0 0.00 0.00 0.00 63 1009.7
20260504024749 65 176 3.0 9.0 0.00 0.00 0.00 62 1009.8
20260504024243 65 187 3.0 6.0 0.00 0.00 0.00 62 1009.9
20260504023737 66 153 3.0 6.0 0.00 0.00 0.00 61 1009.8
20260504023453 66 232 3.0 6.0 0.00 0.00 0.00 61 1009.9
20260504022947 66 234 3.0 7.0 0.00 0.00 0.00 61 1009.9
20260504022438 66 242 3.0 8.0 0.00 0.00 0.00 62 1009.9
20260504021712 66 222 3.0 8.0 0.00 0.00 0.00 60 1009.7
20260504021430 66 218 4.0 8.0 0.00 0.00 0.00 61 1009.6
20260504020701 66 235 4.0 8.0 0.00 0.00 0.00 60 1009.5
20260504020155 66 253 3.0 8.0 0.00 0.00 0.00 60 1009.7
20260504015649 67 198 1.0 8.0 0.00 0.00 0.00 59 1009.7
20260504015143 67 224 1.0 7.0 0.00 0.00 0.00 60 1009.7
20260504014637 67 223 2.0 7.0 0.00 0.00 0.00 60 1009.7
20260504014131 67 151 1.0 6.0 0.00 0.00 0.00 58 1009.6
20260504013625 67 191 0.0 2.0 0.00 0.00 0.00 58 1009.5
20260504013119 67 134 1.0 6.0 0.00 0.00 0.00 57 1009.4
20260504012613 67 174 2.0 6.0 0.00 0.00 0.00 58 1009.4
20260504012107 67 186 2.0 6.0 0.00 0.00 0.00 57 1009.4
20260504011600 68 218 2.0 6.0 0.00 0.00 0.00 57 1009.4
20260504011314 68 213 2.0 5.0 0.00 0.00 0.00 57 1009.4
20260504010823 68 243 2.0 7.0 0.00 0.00 0.00 57 1009.4
20260504010042 68 182 2.0 7.0 0.00 0.00 0.00 56 1009.2
20260504005758 68 226 2.0 8.0 0.00 0.00 0.00 56 1009.3
20260504005248 68 199 2.0 9.0 0.00 0.00 0.00 57 1009.1
20260504004524 68 178 2.0 5.0 0.00 0.00 0.00 56 1009.1
20260504004243 69 139 2.0 8.0 0.00 0.00 0.00 56 1009.2
20260504003521 69 170 3.0 8.0 0.00 0.00 0.00 55 1009.1
20260504003252 69 134 4.0 11.0 0.00 0.00 0.00 55 1009.1
20260504002518 69 185 4.0 11.0 0.00 0.00 0.00 54 1009.1
20260504002020 69 208 4.0 9.0 0.00 0.00 0.00 55 1009.2
20260504001518 70 218 2.0 8.0 0.00 0.00 0.00 54 1009.3
20260504001016 70 190 2.0 9.0 0.00 0.00 0.00 54 1009.3
20260504000512 70 242 2.0 9.0 0.00 0.00 0.00 54 1009.3
20260504000012 70 222 2.0 8.0 0.00 0.00 0.00 53 1009.3
20260503235512 70 218 1.0 8.0 0.00 0.00 0.00 53 1009.4
20260503235014 71 186 1.0 6.0 0.00 0.00 0.00 54 1009.4
20260503234519 71 203 3.0 8.0 0.00 0.00 0.00 53 1009.4
20260503234016 71 232 3.0 8.0 0.00 0.00 0.00 51 1009.4
20260503233512 72 48 2.0 8.0 0.00 0.00 0.00 52 1009.4
20260503233012 72 193 3.0 8.0 0.00 0.00 0.00 52 1009.2
20260503232512 72 201 3.0 14.0 0.00 0.00 0.00 50 1009.7
20260503232012 72 233 4.0 14.0 0.00 0.00 0.00 49 1009.4
20260503231513 73 195 4.0 11.0 0.00 0.00 0.00 48 1009.5
20260503231237 73 196 4.0 11.0 0.00 0.00 0.00 47 1009.6
20260503230508 73 218 4.0 10.0 0.00 0.00 0.00 48 1009.9
20260503230008 74 192 5.0 10.0 0.00 0.00 0.00 47 1009.8
20260503225508 74 208 5.0 10.0 0.00 0.00 0.00 45 1010.0
20260503225008 75 134 5.0 12.0 0.00 0.00 0.00 45 1010.0
20260503224509 76 229 6.0 14.0 0.00 0.00 0.00 43 1010.0
20260503224008 75 280 6.0 14.0 0.00 0.00 0.00 42 1010.1
20260503223511 75 226 6.0 13.0 0.00 0.00 0.00 44 1010.2
20260503223008 75 302 7.0 17.0 0.00 0.00 0.00 45 1010.2
20260503222507 75 248 7.0 17.0 0.00 0.00 0.00 42 1010.2
20260503222009 75 226 6.0 16.0 0.00 0.00 0.00 45 1010.1
20260503221503 75 208 7.0 15.0 0.00 0.00 0.00 44 1010.1
20260503221003 75 224 8.0 15.0 0.00 0.00 0.00 44 1010.2
20260503220503 75 301 7.0 14.0 0.00 0.00 0.00 44 1010.0
20260503220001 75 233 7.0 17.0 0.00 0.00 0.00 45 1010.3
20260503215502 74 250 8.0 17.0 0.00 0.00 0.00 44 1010.3
20260503215003 74 203 8.0 15.0 0.00 0.00 0.00 45 1010.1
20260503214501 74 218 8.0 20.0 0.00 0.00 0.00 44 1010.3
20260503214003 74 229 9.0 20.0 0.00 0.00 0.00 45 1010.1
20260503213509 74 226 10.0 20.0 0.00 0.00 0.00 45 1010.1
20260503213005 73 225 10.0 20.0 0.00 0.00 0.00 43 1010.2
20260503212501 73 222 10.0 20.0 0.00 0.00 0.00 45 1010.3
20260503211959 73 225 9.0 17.0 0.00 0.00 0.00 44 1010.5
20260503211458 73 239 9.0 19.0 0.00 0.00 0.00 44 1010.6
20260503210952 73 213 8.0 19.0 0.00 0.00 0.00 44 1010.8
20260503210447 73 259 9.0 19.0 0.00 0.00 0.00 44 1010.8
20260503205940 73 251 9.0 20.0 0.00 0.00 0.00 42 1010.9
20260503205656 73 218 9.0 20.0 0.00 0.00 0.00 46 1010.7
20260503204928 72 232 10.0 24.0 0.00 0.00 0.00 46 1010.8
20260503204422 71 168 10.0 24.0 0.00 0.00 0.00 47 1010.8
20260503203916 72 256 10.0 22.0 0.00 0.00 0.00 44 1010.9
20260503203410 72 234 11.0 23.0 0.00 0.00 0.00 46 1010.9
20260503202904 72 262 10.0 23.0 0.00 0.00 0.00 44 1011.2
20260503202626 71 248 10.0 21.0 0.00 0.00 0.00 46 1011.1
20260503201852 71 181 11.0 25.0 0.00 0.00 0.00 44 1011.1
20260503201612 71 241 11.0 25.0 0.00 0.00 0.00 45 1011.6
20260503200840 71 218 11.0 22.0 0.00 0.00 0.00 45 1011.4
20260503200335 70 267 11.0 24.0 0.00 0.00 0.00 46 1011.7
20260503195828 70 230 9.0 24.0 0.00 0.00 0.00 44 1011.9
20260503195322 70 253 10.0 25.0 0.00 0.00 0.00 44 1012.0
20260503195040 70 224 12.0 25.0 0.00 0.00 0.00 45 1012.1
20260503194310 70 274 11.0 25.0 0.00 0.00 0.00 43 1012.3
20260503193804 70 161 9.0 21.0 0.00 0.00 0.00 43 1012.7
20260503193259 70 240 9.0 20.0 0.00 0.00 0.00 47 1012.8
20260503192752 70 255 10.0 21.0 0.00 0.00 0.00 46 1013.0
20260503192247 70 247 10.0 21.0 0.00 0.00 0.00 44 1012.9
20260503191741 70 213 10.0 21.0 0.00 0.00 0.00 47 1013.0
20260503191732 70 208 10.0 21.0 0.00 0.00 0.00 45 1013.1
20260503190728 69 257 11.0 22.0 0.00 0.00 0.00 45 1013.3
20260503190222 69 230 11.0 22.0 0.00 0.00 0.00 45 1013.5
20260503185717 69 184 10.0 20.0 0.00 0.00 0.00 48 1013.6
20260503185211 68 248 11.0 22.0 0.00 0.00 0.00 49 1013.8
20260503184704 67 201 11.0 22.0 0.00 0.00 0.00 48 1014.0
20260503184158 67 224 10.0 21.0 0.00 0.00 0.00 46 1014.3
20260503183652 68 278 10.0 20.0 0.00 0.00 0.00 47 1014.4
20260503183147 68 228 10.0 21.0 0.00 0.00 0.00 51 1014.5
20260503182640 68 208 10.0 21.0 0.00 0.00 0.00 48 1014.3
20260503182134 67 218 10.0 20.0 0.00 0.00 0.00 48 1014.5
20260503181629 67 237 10.0 20.0 0.00 0.00 0.00 48 1014.6
20260503181129 67 229 11.0 20.0 0.00 0.00 0.00 49 1014.8
20260503180848 67 290 10.0 20.0 0.00 0.00 0.00 48 1015.1
20260503180129 67 273 10.0 19.0 0.00 0.00 0.00 48 1015.0
20260503175631 67 273 9.0 19.0 0.00 0.00 0.00 48 1015.3
20260503175129 67 259 9.0 19.0 0.00 0.00 0.00 53 1015.6
20260503174629 67 270 10.0 19.0 0.00 0.00 0.00 52 1015.9
20260503174129 66 208 9.0 18.0 0.00 0.00 0.00 55 1015.9
20260503173629 66 256 9.0 19.0 0.00 0.00 0.00 55 1016.1
20260503173134 66 248 9.0 19.0 0.00 0.00 0.00 50 1016.1
20260503172635 66 240 7.0 16.0 0.00 0.00 0.00 52 1016.2
20260503172131 65 0 10.0 20.0 0.00 0.00 0.00 53 1016.1
20260503171631 65 201 11.0 20.0 0.00 0.00 0.00 53 1016.3
20260503171131 65 253 9.0 19.0 0.00 0.00 0.00 52 1016.1
20260503170630 65 241 8.0 18.0 0.00 0.00 0.00 52 1016.2
20260503170127 65 218 8.0 17.0 0.00 0.00 0.00 53 1016.0
20260503160106 62 263 9.0 19.0 0.00 0.00 0.00 58 1017.5
20260503150953 59 250 8.0 17.0 0.00 0.00 0.00 63 1018.0
20260503150938 59 172 6.0 16.0 0.00 0.00 0.00 65 1018.1
20260503131235 51 280 7.0 12.0 0.00 0.00 0.00 73 1018.8
20260503130729 51 243 6.0 12.0 0.00 0.00 0.00 75 1018.8
20260503130223 50 269 5.0 16.0 0.00 0.00 0.00 75 1019.0
20260503120222 46 253 5.0 10.0 0.00 0.00 0.00 82 1018.5
20260503110718 45 208 3.0 9.0 0.00 0.00 0.00 83 1018.0
20260503110217 45 213 3.0 9.0 0.00 0.00 0.00 83 1018.0
20260503100216 45 243 4.0 9.0 0.00 0.00 0.00 82 1018.3
20260503090340 45 199 3.0 6.0 0.00 0.00 0.00 80 1018.8
20260503081523 45 235 2.0 6.0 0.00 0.00 0.00 79 1018.9
20260503081016 45 232 2.0 6.0 0.00 0.00 0.00 79 1018.9
20260503080606 45 251 2.0 7.0 0.00 0.00 0.00 79 1018.8